Time,TemperatureF,DewpointF,PressureIn,WindDirection,WindDirectionDegrees,WindSpeedMPH,WindSpeedGustMPH,Humidity,HourlyPrecipIn,Conditions,Clouds,dailyrainin,SoftwareType,DateUTC
2013-02-18 00:10:00,19.9,0.0,30.00,WNW,286,6.0,-999.0,41,-99.99,,,0.00,weatherlink.com 1.10,2013-02-18 05:10:00,
2013-02-18 00:25:00,19.7,0.0,30.01,WNW,296,7.0,-999.0,42,-99.99,,,0.00,weatherlink.com 1.10,2013-02-18 05:25:00,
2013-02-18 00:40:00,19.5,0.0,30.01,NW,319,5.0,-999.0,43,-99.99,,,0.00,weatherlink.com 1.10,2013-02-18 05:40:00,
2013-02-18 00:55:00,19.5,1.0,30.02,West,268,4.0,-999.0,44,-99.99,,,0.00,weatherlink.com 1.10,2013-02-18 05:55:00,
2013-02-18 01:10:00,19.4,1.0,30.02,NW,304,7.0,-999.0,44,-99.99,,,0.00,weatherlink.com 1.10,2013-02-18 06:10:00,
2013-02-18 01:25:00,19.5,1.0,30.02,NNW,338,3.0,-999.0,44,-99.99,,,0.00,weatherlink.com 1.10,2013-02-18 06:25:00,
2013-02-18 01:41:00,19.2,1.0,30.03,NW,314,6.0,-999.0,45,-99.99,,,0.00,weatherlink.com 1.10,2013-02-18 06:41:00,
2013-02-18 01:55:00,19.2,1.0,30.03,NW,317,14.0,-999.0,45,-99.99,,,0.00,weatherlink.com 1.10,2013-02-18 06:55:00,
2013-02-18 02:10:00,19.2,1.0,30.04,WNW,291,17.0,-999.0,45,-99.99,,,0.00,weatherlink.com 1.10,2013-02-18 07:10:00,
2013-02-18 02:26:00,19.2,1.0,30.04,WNW,301,2.0,-999.0,46,-99.99,,,0.00,weatherlink.com 1.10,2013-02-18 07:26:00,
2013-02-18 02:41:00,19.1,1.0,30.04,WNW,297,6.0,-999.0,46,-99.99,,,0.00,weatherlink.com 1.10,2013-02-18 07:41:00,
2013-02-18 02:56:00,19.1,1.0,30.04,WNW,284,9.0,-999.0,46,-99.99,,,0.00,weatherlink.com 1.10,2013-02-18 07:56:00,
2013-02-18 03:11:00,18.9,1.0,30.04,West,278,4.0,-999.0,46,-99.99,,,0.00,weatherlink.com 1.10,2013-02-18 08:11:00,
2013-02-18 03:26:00,18.8,1.0,30.05,WNW,298,4.0,-999.0,46,-99.99,,,0.00,weatherlink.com 1.10,2013-02-18 08:26:00,
2013-02-18 03:41:00,18.6,1.0,30.05,WSW,251,8.0,-999.0,47,-99.99,,,0.00,weatherlink.com 1.10,2013-02-18 08:41:00,
2013-02-18 03:56:00,18.6,1.0,30.06,WNW,298,7.0,-999.0,47,-99.99,,,0.00,weatherlink.com 1.10,2013-02-18 08:56:00,
2013-02-18 04:11:00,18.8,2.0,30.06,WNW,297,3.0,-999.0,47,-99.99,,,0.00,weatherlink.com 1.10,2013-02-18 09:11:00,
2013-02-18 04:26:00,18.6,1.0,30.07,WNW,284,5.0,-999.0,47,-99.99,,,0.00,weatherlink.com 1.10,2013-02-18 09:26:00,
2013-02-18 04:56:00,18.6,2.0,30.09,WNW,289,9.0,-999.0,48,-99.99,,,0.00,weatherlink.com 1.10,2013-02-18 09:56:00,
2013-02-18 05:12:00,18.6,2.0,30.09,WNW,286,6.0,-999.0,48,-99.99,,,0.00,weatherlink.com 1.10,2013-02-18 10:12:00,
2013-02-18 05:27:00,18.6,2.0,30.09,West,267,3.0,-999.0,48,-99.99,,,0.00,weatherlink.com 1.10,2013-02-18 10:27:00,
2013-02-18 05:42:00,18.6,2.0,30.10,WNW,296,5.0,-999.0,48,-99.99,,,0.00,weatherlink.com 1.10,2013-02-18 10:42:00,
2013-02-18 05:57:00,18.6,2.0,30.11,NW,305,0.0,-999.0,48,-99.99,,,0.00,weatherlink.com 1.10,2013-02-18 10:57:00,
2013-02-18 06:12:00,18.4,2.0,30.12,West,280,3.0,-999.0,48,-99.99,,,0.00,weatherlink.com 1.10,2013-02-18 11:12:00,
2013-02-18 06:27:00,18.4,2.0,30.14,WNW,297,2.0,-999.0,48,-99.99,,,0.00,weatherlink.com 1.10,2013-02-18 11:27:00,
2013-02-18 06:42:00,18.4,2.0,30.14,NW,305,0.0,-999.0,49,-99.99,,,0.00,weatherlink.com 1.10,2013-02-18 11:42:00,
2013-02-18 06:57:00,18.3,2.0,30.15,WNW,289,0.0,-999.0,49,-99.99,,,0.00,weatherlink.com 1.10,2013-02-18 11:57:00,
2013-02-18 07:12:00,18.3,2.0,30.16,NW,305,3.0,-999.0,49,-99.99,,,0.00,weatherlink.com 1.10,2013-02-18 12:12:00,
2013-02-18 07:27:00,18.6,2.0,30.17,NW,312,7.0,-999.0,49,-99.99,,,0.00,weatherlink.com 1.10,2013-02-18 12:27:00,
2013-02-18 07:42:00,18.9,3.0,30.17,WSW,250,4.0,-999.0,49,-99.99,,,0.00,weatherlink.com 1.10,2013-02-18 12:42:00,
2013-02-18 07:57:00,20.0,3.0,30.18,WNW,286,4.0,-999.0,47,-99.99,,,0.00,weatherlink.com 1.10,2013-02-18 12:57:00,
2013-02-18 08:12:00,20.5,2.0,30.20,West,275,10.0,-999.0,45,-99.99,,,0.00,weatherlink.com 1.10,2013-02-18 13:12:00,
2013-02-18 08:28:00,21.0,2.0,30.20,West,265,6.0,-999.0,44,-99.99,,,0.00,weatherlink.com 1.10,2013-02-18 13:28:00,
2013-02-18 08:43:00,21.8,2.0,30.20,NW,308,4.0,-999.0,43,-99.99,,,0.00,weatherlink.com 1.10,2013-02-18 13:43:00,
2013-02-18 08:58:00,22.1,3.0,30.21,WNW,295,2.0,-999.0,43,-99.99,,,0.00,weatherlink.com 1.10,2013-02-18 13:58:00,
2013-02-18 09:13:00,22.7,3.0,30.21,NNW,334,6.0,-999.0,42,-99.99,,,0.00,weatherlink.com 1.10,2013-02-18 14:13:00,
2013-02-18 09:28:00,23.3,3.0,30.22,West,269,13.0,-999.0,41,-99.99,,,0.00,weatherlink.com 1.10,2013-02-18 14:28:00,
2013-02-18 09:43:00,24.1,3.0,30.22,NW,307,11.0,-999.0,40,-99.99,,,0.00,weatherlink.com 1.10,2013-02-18 14:43:00,
2013-02-18 09:58:00,24.7,3.0,30.22,NW,315,6.0,-999.0,39,-99.99,,,0.00,weatherlink.com 1.10,2013-02-18 14:58:00,
2013-02-18 10:14:00,25.1,3.0,30.22,West,263,5.0,-999.0,39,-99.99,,,0.00,weatherlink.com 1.10,2013-02-18 15:14:00,
2013-02-18 10:28:00,25.8,4.0,30.23,West,276,2.0,-999.0,39,-99.99,,,0.00,weatherlink.com 1.10,2013-02-18 15:28:00,
2013-02-18 10:43:00,26.7,4.0,30.23,WSW,257,5.0,-999.0,38,-99.99,,,0.00,weatherlink.com 1.10,2013-02-18 15:43:00,
2013-02-18 10:58:00,27.2,5.0,30.23,WNW,301,2.0,-999.0,38,-99.99,,,0.00,weatherlink.com 1.10,2013-02-18 15:58:00,
2013-02-18 11:14:00,27.9,5.0,30.23,West,277,4.0,-999.0,37,-99.99,,,0.00,weatherlink.com 1.10,2013-02-18 16:14:00,
2013-02-18 11:29:00,29.0,6.0,30.23,West,267,5.0,-999.0,37,-99.99,,,0.00,weatherlink.com 1.10,2013-02-18 16:29:00,
2013-02-18 11:44:00,29.3,6.0,30.22,West,274,3.0,-999.0,37,-99.99,,,0.00,weatherlink.com 1.10,2013-02-18 16:44:00,
2013-02-18 11:59:00,29.7,6.0,30.21,WSW,248,6.0,-999.0,37,-99.99,,,0.00,weatherlink.com 1.10,2013-02-18 16:59:00,
2013-02-18 12:14:00,30.7,6.0,30.20,West,267,2.0,-999.0,35,-99.99,,,0.00,weatherlink.com 1.10,2013-02-18 17:14:00,
2013-02-18 12:29:00,30.9,6.0,30.20,WNW,287,2.0,-999.0,35,-99.99,,,0.00,weatherlink.com 1.10,2013-02-18 17:29:00,
2013-02-18 12:59:00,32.1,7.0,30.18,WNW,298,4.0,-999.0,35,-99.99,,,0.00,weatherlink.com 1.10,2013-02-18 17:59:00,
2013-02-18 13:14:00,32.1,7.0,30.17,WNW,283,4.0,-999.0,35,-99.99,,,0.00,weatherlink.com 1.10,2013-02-18 18:14:00,
2013-02-18 13:30:00,32.9,8.0,30.16,WNW,284,6.0,-999.0,35,-99.99,,,0.00,weatherlink.com 1.10,2013-02-18 18:30:00,
2013-02-18 14:00:00,34.3,6.0,30.15,WNW,290,3.0,-999.0,31,-99.99,,,0.00,weatherlink.com 1.10,2013-02-18 19:00:00,
2013-02-18 14:15:00,34.7,7.0,30.15,West,279,5.0,-999.0,32,-99.99,,,0.00,weatherlink.com 1.10,2013-02-18 19:15:00,
2013-02-18 14:30:00,35.6,8.0,30.15,WSW,257,2.0,-999.0,32,-99.99,,,0.00,weatherlink.com 1.10,2013-02-18 19:30:00,
2013-02-18 14:45:00,35.5,7.0,30.15,West,261,2.0,-999.0,31,-99.99,,,0.00,weatherlink.com 1.10,2013-02-18 19:45:00,
2013-02-18 15:00:00,35.3,7.0,30.15,WSW,242,4.0,-999.0,31,-99.99,,,0.00,weatherlink.com 1.10,2013-02-18 20:00:00,
2013-02-18 15:15:00,35.5,8.0,30.15,West,279,6.0,-999.0,32,-99.99,,,0.00,weatherlink.com 1.10,2013-02-18 20:15:00,
2013-02-18 15:30:00,35.3,7.0,30.15,WNW,294,3.0,-999.0,31,-99.99,,,0.00,weatherlink.com 1.10,2013-02-18 20:30:00,
2013-02-18 15:45:00,35.8,8.0,30.15,WNW,284,3.0,-999.0,32,-99.99,,,0.00,weatherlink.com 1.10,2013-02-18 20:45:00,
2013-02-18 16:00:00,35.9,8.0,30.15,WNW,294,2.0,-999.0,31,-99.99,,,0.00,weatherlink.com 1.10,2013-02-18 21:00:00,
2013-02-18 16:15:00,35.6,7.0,30.15,WNW,288,0.0,-999.0,30,-99.99,,,0.00,weatherlink.com 1.10,2013-02-18 21:15:00,
2013-02-18 16:30:00,36.2,7.0,30.14,WNW,292,2.0,-999.0,29,-99.99,,,0.00,weatherlink.com 1.10,2013-02-18 21:30:00,
2013-02-18 16:46:00,36.3,7.0,30.14,WNW,288,4.0,-999.0,29,-99.99,,,0.00,weatherlink.com 1.10,2013-02-18 21:46:00,
2013-02-18 17:01:00,35.8,7.0,30.14,WNW,303,2.0,-999.0,30,-99.99,,,0.00,weatherlink.com 1.10,2013-02-18 22:01:00,
2013-02-18 17:16:00,34.4,7.0,30.14,WNW,286,1.0,-999.0,32,-99.99,,,0.00,weatherlink.com 1.10,2013-02-18 22:16:00,
2013-02-18 17:31:00,33.5,7.0,30.15,WSW,253,0.0,-999.0,33,-99.99,,,0.00,weatherlink.com 1.10,2013-02-18 22:31:00,
2013-02-18 17:46:00,32.8,8.0,30.15,WSW,252,0.0,-999.0,36,-99.99,,,0.00,weatherlink.com 1.10,2013-02-18 22:46:00,
2013-02-18 18:04:00,32.1,10.0,30.15,WSW,248,0.0,-999.0,39,-99.99,,,0.00,weatherlink.com 1.10,2013-02-18 23:04:00,
2013-02-18 18:16:00,31.5,10.0,30.15,WSW,248,0.0,-999.0,40,-99.99,,,0.00,weatherlink.com 1.10,2013-02-18 23:16:00,
2013-02-18 18:31:00,31.0,10.0,30.15,WSW,248,0.0,-999.0,42,-99.99,,,0.00,weatherlink.com 1.10,2013-02-18 23:31:00,
2013-02-18 18:46:00,30.0,10.0,30.16,WSW,248,0.0,-999.0,43,-99.99,,,0.00,weatherlink.com 1.10,2013-02-18 23:46:00,
2013-02-18 19:01:00,29.1,11.0,30.16,WSW,248,0.0,-999.0,46,-99.99,,,0.00,weatherlink.com 1.10,2013-02-19 00:01:00,
2013-02-18 19:16:00,28.7,11.0,30.16,WSW,248,0.0,-999.0,48,-99.99,,,0.00,weatherlink.com 1.10,2013-02-19 00:16:00,
2013-02-18 19:32:00,28.4,10.0,30.16,WSW,248,0.0,-999.0,47,-99.99,,,0.00,weatherlink.com 1.10,2013-02-19 00:32:00,
2013-02-18 19:46:00,28.7,10.0,30.16,WSW,248,0.0,-999.0,46,-99.99,,,0.00,weatherlink.com 1.10,2013-02-19 00:46:00,
2013-02-18 20:02:00,28.7,10.0,30.15,WSW,248,0.0,-999.0,46,-99.99,,,0.00,weatherlink.com 1.10,2013-02-19 01:02:00,
2013-02-18 20:17:00,28.5,11.0,30.15,WSW,248,0.0,-999.0,48,-99.99,,,0.00,weatherlink.com 1.10,2013-02-19 01:17:00,
2013-02-18 20:32:00,28.4,12.0,30.14,WSW,248,0.0,-999.0,50,-99.99,,,0.00,weatherlink.com 1.10,2013-02-19 01:32:00,
2013-02-18 20:47:00,28.2,12.0,30.14,WSW,248,0.0,-999.0,51,-99.99,,,0.00,weatherlink.com 1.10,2013-02-19 01:47:00,
2013-02-18 21:02:00,29.7,11.0,30.14,WSW,248,0.0,-999.0,45,-99.99,,,0.00,weatherlink.com 1.10,2013-02-19 02:02:00,
2013-02-18 21:17:00,30.0,10.0,30.14,SW,232,0.0,-999.0,43,-99.99,,,0.00,weatherlink.com 1.10,2013-02-19 02:17:00,
2013-02-18 21:32:00,30.7,10.0,30.14,SW,223,0.0,-999.0,42,-99.99,,,0.00,weatherlink.com 1.10,2013-02-19 02:32:00,
2013-02-18 21:47:00,30.7,10.0,30.14,SW,223,0.0,-999.0,43,-99.99,,,0.00,weatherlink.com 1.10,2013-02-19 02:47:00,
2013-02-18 22:17:00,28.7,13.0,30.14,WSW,249,0.0,-999.0,51,-99.99,,,0.00,weatherlink.com 1.10,2013-02-19 03:17:00,
2013-02-18 22:33:00,27.8,12.0,30.14,WSW,249,0.0,-999.0,52,-99.99,,,0.00,weatherlink.com 1.10,2013-02-19 03:33:00,
2013-02-18 22:47:00,27.2,12.0,30.14,WSW,249,0.0,-999.0,53,-99.99,,,0.00,weatherlink.com 1.10,2013-02-19 03:47:00,
2013-02-18 23:02:00,26.9,13.0,30.13,WSW,249,0.0,-999.0,55,-99.99,,,0.00,weatherlink.com 1.10,2013-02-19 04:02:00,
2013-02-18 23:17:00,26.4,13.0,30.13,WSW,249,0.0,-999.0,58,-99.99,,,0.00,weatherlink.com 1.10,2013-02-19 04:17:00,
2013-02-18 23:33:00,26.0,13.0,30.12,WSW,249,0.0,-999.0,58,-99.99,,,0.00,weatherlink.com 1.10,2013-02-19 04:33:00,
2013-02-18 23:48:00,25.4,13.0,30.12,WSW,249,0.0,-999.0,60,-99.99,,,0.00,weatherlink.com 1.10,2013-02-19 04:48:00,